Location: Bottom School (historical)
(37.9078°N, 89.3593°W)
Time: 20:37:57
(UTC+00:00)

SJ 16-02 - Pass Details

Date: 08 December 2021
Orbit: 605 x 616 km, 75.0° (Epoch: 17 January)

Event Time Altitude Azimuth Distance (km) Brightness Sun altitude
Rises 12:01:32 0° 227° (SW) 2,851 4.5 -11.5°
Reaches altitude 10° 12:04:08 10° 241° (WSW) 1,950 3.5 -11.0°
Maximum altitude 12:07:38 23° 295° (WNW) 1,286 2.4 -10.4°
Drops below altitude 10° 12:11:09 10° 349° (N) 1,959 3.6 -9.7°
Sets 12:13:46 0° 4° (N) 2,866 4.6 -9.2°
